| time (UTC) | temp F | wind direction | speed MPH | gust MPH | rain 1hr in | rain 24hr in | rain mn in | humidity % | barometer mb |
| 20260506231047 | 64 | 250 | 2.0 | 6.0 | 0.00 | 0.17 | 0.17 | 89 | 1009.7 |
| 20260506230547 | 65 | 254 | 2.0 | 6.0 | 0.00 | 0.17 | 0.17 | 89 | 1009.7 |
| 20260506230050 | 65 | 256 | 1.0 | 4.0 | 0.00 | 0.17 | 0.17 | 89 | 1009.6 |
| 20260506225547 | 65 | 256 | 1.0 | 4.0 | 0.00 | 0.17 | 0.17 | 89 | 1009.6 |
| 20260506225046 | 65 | 251 | 1.0 | 4.0 | 0.00 | 0.17 | 0.17 | 88 | 1009.5 |
| 20260506224554 | 65 | 249 | 1.0 | 4.0 | 0.00 | 0.17 | 0.17 | 88 | 1009.6 |
| 20260506224045 | 65 | 247 | 1.0 | 7.0 | 0.00 | 0.17 | 0.17 | 88 | 1009.7 |
| 20260506223545 | 65 | 254 | 2.0 | 7.0 | 0.00 | 0.17 | 0.17 | 88 | 1009.8 |
| 20260506223053 | 65 | 235 | 2.0 | 5.0 | 0.00 | 0.17 | 0.17 | 88 | 1009.7 |
| 20260506222547 | 65 | 256 | 1.0 | 8.0 | 0.00 | 0.17 | 0.17 | 88 | 1009.6 |
| 20260506222047 | 65 | 253 | 2.0 | 8.0 | 0.00 | 0.17 | 0.17 | 88 | 1009.3 |
| 20260506221551 | 65 | 250 | 1.0 | 4.0 | 0.00 | 0.17 | 0.17 | 88 | 1009.4 |
| 20260506221050 | 65 | 215 | 1.0 | 8.0 | 0.00 | 0.17 | 0.17 | 88 | 1009.4 |
| 20260506220547 | 65 | 269 | 3.0 | 8.0 | 0.00 | 0.17 | 0.17 | 87 | 1009.5 |
| 20260506220053 | 65 | 252 | 2.0 | 7.0 | 0.00 | 0.17 | 0.17 | 87 | 1009.4 |
| 20260506215546 | 65 | 246 | 3.0 | 7.0 | 0.00 | 0.17 | 0.17 | 87 | 1009.5 |
| 20260506215048 | 65 | 254 | 2.0 | 7.0 | 0.00 | 0.17 | 0.17 | 87 | 1009.5 |
| 20260506214551 | 65 | 268 | 3.0 | 7.0 | 0.00 | 0.17 | 0.17 | 87 | 1009.5 |
| 20260506214045 | 65 | 225 | 2.0 | 6.0 | 0.00 | 0.17 | 0.17 | 87 | 1009.0 |
| 20260506213548 | 65 | 258 | 1.0 | 6.0 | 0.00 | 0.17 | 0.17 | 87 | 1009.2 |
| 20260506213055 | 65 | 256 | 2.0 | 6.0 | 0.00 | 0.17 | 0.17 | 88 | 1009.2 |
| 20260506212546 | 65 | 264 | 3.0 | 7.0 | 0.00 | 0.17 | 0.17 | 88 | 1009.2 |
| 20260506212046 | 65 | 257 | 2.0 | 7.0 | 0.00 | 0.17 | 0.17 | 88 | 1009.0 |
| 20260506211553 | 65 | 225 | 2.0 | 7.0 | 0.00 | 0.17 | 0.17 | 88 | 1008.9 |
| 20260506211048 | 65 | 264 | 3.0 | 7.0 | 0.00 | 0.17 | 0.17 | 88 | 1008.9 |
| 20260506210546 | 65 | 273 | 2.0 | 8.0 | 0.00 | 0.17 | 0.17 | 88 | 1008.8 |
| 20260506210050 | 64 | 214 | 3.0 | 8.0 | 0.00 | 0.17 | 0.17 | 88 | 1008.8 |
| 20260506205546 | 64 | 217 | 3.0 | 11.0 | 0.00 | 0.17 | 0.17 | 89 | 1008.9 |
| 20260506205047 | 64 | 267 | 3.0 | 11.0 | 0.00 | 0.17 | 0.17 | 89 | 1008.8 |
| 20260506204549 | 64 | 258 | 3.0 | 11.0 | 0.00 | 0.17 | 0.17 | 89 | 1008.7 |
| 20260506204046 | 64 | 238 | 2.0 | 7.0 | 0.00 | 0.17 | 0.17 | 89 | 1008.9 |
| 20260506203546 | 64 | 252 | 2.0 | 7.0 | 0.00 | 0.17 | 0.17 | 89 | 1008.8 |
| 20260506203047 | 64 | 236 | 4.0 | 9.0 | 0.00 | 0.17 | 0.17 | 89 | 1008.8 |
| 20260506202548 | 64 | 241 | 2.0 | 9.0 | 0.00 | 0.17 | 0.17 | 89 | 1008.9 |
| 20260506202046 | 64 | 252 | 4.0 | 9.0 | 0.00 | 0.17 | 0.17 | 88 | 1008.8 |
| 20260506201556 | 64 | 246 | 4.0 | 9.0 | 0.00 | 0.17 | 0.17 | 89 | 1008.7 |
| 20260506201046 | 64 | 284 | 2.0 | 9.0 | 0.00 | 0.17 | 0.17 | 89 | 1008.7 |
| 20260506200546 | 64 | 227 | 3.0 | 14.0 | 0.00 | 0.17 | 0.17 | 89 | 1008.8 |
| 20260506200052 | 64 | 265 | 5.0 | 14.0 | 0.00 | 0.17 | 0.17 | 88 | 1008.8 |
| 20260506195546 | 64 | 248 | 3.0 | 9.0 | 0.00 | 0.17 | 0.17 | 89 | 1008.8 |
| 20260506195047 | 64 | 202 | 3.0 | 9.0 | 0.00 | 0.17 | 0.17 | 89 | 1008.9 |
| 20260506194552 | 64 | 269 | 3.0 | 9.0 | 0.00 | 0.17 | 0.17 | 90 | 1008.8 |
| 20260506194048 | 64 | 266 | 4.0 | 10.0 | 0.00 | 0.17 | 0.17 | 91 | 1009.0 |
| 20260506193550 | 63 | 205 | 3.0 | 10.0 | 0.00 | 0.17 | 0.17 | 92 | 1009.0 |
| 20260506193050 | 63 | 231 | 4.0 | 11.0 | 0.00 | 0.17 | 0.17 | 92 | 1009.1 |
| 20260506192546 | 63 | 238 | 3.0 | 11.0 | 0.00 | 0.17 | 0.17 | 93 | 1009.0 |
| 20260506192048 | 63 | 217 | 3.0 | 8.0 | 0.00 | 0.17 | 0.17 | 94 | 1009.1 |
| 20260506191555 | 62 | 244 | 2.0 | 7.0 | 0.00 | 0.17 | 0.17 | 94 | 1009.0 |
| 20260506191046 | 62 | 266 | 2.0 | 7.0 | 0.00 | 0.17 | 0.17 | 94 | 1009.1 |
| 20260506190545 | 62 | 214 | 3.0 | 7.0 | 0.00 | 0.17 | 0.17 | 95 | 1009.1 |
| 20260506190055 | 61 | 271 | 3.0 | 8.0 | 0.00 | 0.17 | 0.17 | 96 | 1009.1 |
| 20260506185545 | 61 | 246 | 2.0 | 9.0 | 0.00 | 0.17 | 0.17 | 96 | 1009.1 |
| 20260506185045 | 61 | 280 | 3.0 | 9.0 | 0.00 | 0.17 | 0.17 | 97 | 1009.1 |
| 20260506184557 | 60 | 299 | 2.0 | 8.0 | 0.00 | 0.17 | 0.17 | 97 | 1009.3 |
| 20260506184045 | 60 | 217 | 3.0 | 8.0 | 0.00 | 0.17 | 0.17 | 97 | 1009.3 |
| 20260506183549 | 60 | 268 | 2.0 | 10.0 | 0.00 | 0.17 | 0.17 | 97 | 1009.4 |
| 20260506183052 | 59 | 212 | 4.0 | 10.0 | 0.00 | 0.17 | 0.17 | 96 | 1009.4 |
| 20260506182547 | 59 | 206 | 2.0 | 7.0 | 0.00 | 0.17 | 0.17 | 96 | 1009.6 |
| 20260506182047 | 59 | 205 | 3.0 | 7.0 | 0.00 | 0.17 | 0.17 | 97 | 1009.6 |
| 20260506181549 | 59 | 227 | 2.0 | 8.0 | 0.00 | 0.17 | 0.17 | 96 | 1009.7 |
| 20260506181047 | 59 | 196 | 3.0 | 10.0 | 0.00 | 0.17 | 0.17 | 96 | 1009.7 |
| 20260506180547 | 59 | 209 | 4.0 | 10.0 | 0.00 | 0.17 | 0.17 | 96 | 1009.8 |
| 20260506180049 | 59 | 192 | 3.0 | 7.0 | 0.00 | 0.17 | 0.17 | 96 | 1010.0 |
| 20260506175547 | 59 | 209 | 2.0 | 10.0 | 0.00 | 0.17 | 0.17 | 96 | 1009.9 |
| 20260506175045 | 59 | 194 | 3.0 | 10.0 | 0.00 | 0.17 | 0.17 | 96 | 1009.9 |
| 20260506174548 | 59 | 212 | 3.0 | 9.0 | 0.00 | 0.17 | 0.17 | 96 | 1009.8 |
| 20260506174046 | 59 | 200 | 3.0 | 10.0 | 0.00 | 0.17 | 0.17 | 96 | 1009.7 |
| 20260506173546 | 59 | 236 | 4.0 | 10.0 | 0.00 | 0.17 | 0.17 | 96 | 1009.8 |
| 20260506173124 | 59 | 201 | 4.0 | 10.0 | 0.00 | 0.17 | 0.17 | 96 | 1009.6 |
| 20260506172545 | 59 | 246 | 3.0 | 7.0 | 0.00 | 0.17 | 0.17 | 96 | 1009.6 |
| 20260506172047 | 59 | 220 | 3.0 | 8.0 | 0.01 | 0.17 | 0.17 | 96 | 1009.6 |
| 20260506171545 | 58 | 211 | 3.0 | 9.0 | 0.01 | 0.17 | 0.17 | 96 | 1009.6 |
| 20260506171045 | 58 | 191 | 3.0 | 9.0 | 0.01 | 0.17 | 0.17 | 96 | 1009.7 |
| 20260506170546 | 58 | 212 | 3.0 | 8.0 | 0.01 | 0.17 | 0.17 | 96 | 1009.7 |
| 20260506170056 | 58 | 205 | 3.0 | 12.0 | 0.01 | 0.17 | 0.17 | 96 | 1009.8 |
| 20260506165545 | 58 | 222 | 3.0 | 12.0 | 0.02 | 0.17 | 0.17 | 96 | 1009.9 |
| 20260506165047 | 58 | 225 | 3.0 | 8.0 | 0.02 | 0.17 | 0.17 | 96 | 1010.0 |
| 20260506164559 | 58 | 192 | 2.0 | 7.0 | 0.02 | 0.17 | 0.17 | 96 | 1009.9 |
| 20260506164045 | 59 | 208 | 3.0 | 8.0 | 0.02 | 0.17 | 0.17 | 95 | 1010.1 |
| 20260506163545 | 59 | 254 | 3.0 | 8.0 | 0.02 | 0.17 | 0.17 | 95 | 1010.0 |
| 20260506163104 | 59 | 217 | 3.0 | 7.0 | 0.03 | 0.17 | 0.17 | 96 | 1010.1 |
| 20260506162545 | 59 | 217 | 3.0 | 7.0 | 0.03 | 0.17 | 0.17 | 96 | 1009.8 |
| 20260506162047 | 59 | 198 | 3.0 | 7.0 | 0.03 | 0.16 | 0.16 | 96 | 1009.8 |
| 20260506161626 | 59 | 202 | 2.0 | 7.0 | 0.03 | 0.16 | 0.16 | 96 | 1009.8 |
| 20260506161045 | 59 | 203 | 3.0 | 6.0 | 0.04 | 0.16 | 0.16 | 96 | 1009.6 |
| 20260506160545 | 59 | 191 | 2.0 | 7.0 | 0.05 | 0.16 | 0.16 | 96 | 1009.6 |
| 20260506160103 | 58 | 198 | 3.0 | 7.0 | 0.07 | 0.16 | 0.16 | 95 | 1009.5 |
| 20260506155545 | 59 | 194 | 3.0 | 7.0 | 0.07 | 0.15 | 0.15 | 95 | 1009.6 |
| 20260506155045 | 59 | 191 | 2.0 | 6.0 | 0.08 | 0.15 | 0.15 | 95 | 1009.9 |
| 20260506154600 | 59 | 209 | 3.0 | 7.0 | 0.09 | 0.15 | 0.15 | 95 | 1010.4 |
| 20260506154046 | 59 | 187 | 3.0 | 7.0 | 0.10 | 0.15 | 0.15 | 95 | 1010.7 |
| 20260506153546 | 59 | 206 | 3.0 | 5.0 | 0.10 | 0.15 | 0.15 | 95 | 1010.7 |
| 20260506153058 | 59 | 251 | 2.0 | 6.0 | 0.10 | 0.14 | 0.14 | 95 | 1010.8 |
| 20260506152546 | 59 | 202 | 3.0 | 7.0 | 0.10 | 0.14 | 0.14 | 95 | 1010.8 |
| 20260506152046 | 59 | 196 | 3.0 | 7.0 | 0.09 | 0.13 | 0.13 | 95 | 1010.9 |
| 20260506151558 | 59 | 204 | 3.0 | 7.0 | 0.10 | 0.13 | 0.13 | 95 | 1011.0 |
| 20260506151045 | 59 | 200 | 3.0 | 6.0 | 0.09 | 0.12 | 0.12 | 95 | 1011.1 |
| 20260506150551 | 59 | 200 | 2.0 | 5.0 | 0.09 | 0.11 | 0.11 | 95 | 1011.1 |
| 20260506150057 | 59 | 188 | 2.0 | 7.0 | 0.07 | 0.09 | 0.09 | 94 | 1011.1 |
| 20260506145546 | 59 | 205 | 2.0 | 7.0 | 0.06 | 0.07 | 0.07 | 94 | 1010.9 |
| 20260506145048 | 59 | 191 | 2.0 | 5.0 | 0.06 | 0.07 | 0.07 | 94 | 1010.7 |
| 20260506144549 | 59 | 188 | 2.0 | 6.0 | 0.05 | 0.06 | 0.06 | 94 | 1010.9 |
| 20260506144045 | 59 | 242 | 3.0 | 6.0 | 0.05 | 0.05 | 0.05 | 94 | 1010.9 |
| 20260506143545 | 59 | 184 | 2.0 | 6.0 | 0.05 | 0.05 | 0.05 | 94 | 1010.8 |
| 20260506143051 | 59 | 229 | 2.0 | 5.0 | 0.04 | 0.04 | 0.04 | 94 | 1010.8 |
| 20260506142545 | 59 | 232 | 2.0 | 5.0 | 0.04 | 0.04 | 0.04 | 94 | 1010.8 |
| 20260506142045 | 59 | 190 | 1.0 | 4.0 | 0.04 | 0.04 | 0.04 | 94 | 1010.9 |
| 20260506141555 | 59 | 246 | 1.0 | 4.0 | 0.03 | 0.03 | 0.03 | 93 | 1010.9 |
| 20260506141046 | 59 | 198 | 2.0 | 4.0 | 0.03 | 0.03 | 0.03 | 93 | 1010.8 |
| 20260506140546 | 59 | 200 | 1.0 | 5.0 | 0.02 | 0.02 | 0.02 | 92 | 1010.8 |
| 20260506140055 | 59 | 200 | 2.0 | 6.0 | 0.02 | 0.02 | 0.02 | 92 | 1010.8 |
| 20260506135546 | 60 | 202 | 3.0 | 6.0 | 0.01 | 0.01 | 0.01 | 92 | 1010.9 |
| 20260506135045 | 60 | 202 | 2.0 | 5.0 | 0.01 | 0.01 | 0.01 | 92 | 1010.8 |
| 20260506134553 | 60 | 202 | 2.0 | 5.0 | 0.00 | 0.00 | 0.00 | 91 | 1010.8 |
| 20260506134045 | 60 | 200 | 2.0 | 6.0 | 0.00 | 0.00 | 0.00 | 91 | 1010.9 |
| 20260506133545 | 60 | 198 | 3.0 | 6.0 | 0.00 | 0.00 | 0.00 | 91 | 1010.8 |
| 20260506133051 | 60 | 202 | 2.0 | 5.0 | 0.00 | 0.00 | 0.00 | 91 | 1010.9 |
| 20260506132545 | 60 | 202 | 2.0 | 5.0 | 0.00 | 0.00 | 0.00 | 91 | 1010.7 |
| 20260506132045 | 60 | 203 | 3.0 | 5.0 | 0.00 | 0.00 | 0.00 | 90 | 1010.8 |
| 20260506131557 | 60 | 200 | 2.0 | 5.0 | 0.00 | 0.00 | 0.00 | 90 | 1010.9 |
| 20260506131045 | 60 | 208 | 2.0 | 5.0 | 0.00 | 0.00 | 0.00 | 90 | 1011.1 |
| 20260506130545 | 60 | 202 | 2.0 | 5.0 | 0.00 | 0.00 | 0.00 | 90 | 1011.0 |
| 20260506130121 | 60 | 194 | 2.0 | 6.0 | 0.00 | 0.00 | 0.00 | 89 | 1011.1 |
| 20260506125545 | 60 | 217 | 3.0 | 6.0 | 0.00 | 0.00 | 0.00 | 89 | 1011.1 |
| 20260506125045 | 60 | 185 | 2.0 | 5.0 | 0.00 | 0.00 | 0.00 | 89 | 1011.1 |
| 20260506124557 | 60 | 211 | 2.0 | 5.0 | 0.00 | 0.00 | 0.00 | 89 | 1011.2 |
| 20260506124045 | 60 | 248 | 2.0 | 6.0 | 0.00 | 0.00 | 0.00 | 89 | 1011.2 |
| 20260506123545 | 61 | 205 | 2.0 | 6.0 | 0.00 | 0.00 | 0.00 | 88 | 1011.3 |
| 20260506123054 | 61 | 205 | 3.0 | 8.0 | 0.00 | 0.00 | 0.00 | 87 | 1011.3 |
| 20260506122548 | 61 | 222 | 3.0 | 8.0 | 0.00 | 0.00 | 0.00 | 87 | 1011.1 |
| 20260506122045 | 61 | 263 | 3.0 | 7.0 | 0.00 | 0.00 | 0.00 | 87 | 1011.0 |
| 20260506121553 | 61 | 258 | 3.0 | 7.0 | 0.00 | 0.00 | 0.00 | 86 | 1011.1 |
| 20260506121045 | 61 | 202 | 4.0 | 7.0 | 0.00 | 0.00 | 0.00 | 85 | 1011.0 |
| 20260506120547 | 62 | 196 | 3.0 | 6.0 | 0.00 | 0.00 | 0.00 | 84 | 1011.0 |
| 20260506120050 | 62 | 204 | 3.0 | 7.0 | 0.00 | 0.00 | 0.00 | 83 | 1010.8 |
| 20260506115544 | 62 | 203 | 3.0 | 12.0 | 0.00 | 0.00 | 0.00 | 83 | 1010.7 |
| 20260506115045 | 62 | 201 | 3.0 | 12.0 | 0.00 | 0.00 | 0.00 | 83 | 1010.7 |
| 20260506114551 | 62 | 198 | 4.0 | 8.0 | 0.00 | 0.00 | 0.00 | 83 | 1010.6 |
| 20260506114046 | 62 | 235 | 3.0 | 10.0 | 0.00 | 0.00 | 0.00 | 83 | 1010.7 |
| 20260506113545 | 62 | 238 | 4.0 | 10.0 | 0.00 | 0.00 | 0.00 | 83 | 1010.7 |
| 20260506113058 | 62 | 202 | 4.0 | 10.0 | 0.00 | 0.00 | 0.00 | 82 | 1010.6 |
| 20260506112546 | 62 | 205 | 3.0 | 7.0 | 0.00 | 0.00 | 0.00 | 83 | 1010.4 |
| 20260506112045 | 62 | 196 | 3.0 | 7.0 | 0.00 | 0.00 | 0.00 | 82 | 1010.5 |
| 20260506111549 | 62 | 196 | 4.0 | 7.0 | 0.00 | 0.00 | 0.00 | 82 | 1010.4 |
| 20260506111048 | 62 | 173 | 3.0 | 9.0 | 0.00 | 0.00 | 0.00 | 83 | 1010.3 |
| 20260506110548 | 62 | 201 | 3.0 | 9.0 | 0.00 | 0.00 | 0.00 | 82 | 1010.3 |
| 20260506110057 | 62 | 192 | 4.0 | 9.0 | 0.00 | 0.00 | 0.00 | 82 | 1010.3 |
| 20260506105548 | 62 | 213 | 3.0 | 5.0 | 0.00 | 0.00 | 0.00 | 82 | 1010.3 |
| 20260506105050 | 62 | 215 | 3.0 | 8.0 | 0.00 | 0.00 | 0.00 | 82 | 1010.5 |
| 20260506104552 | 62 | 192 | 3.0 | 8.0 | 0.00 | 0.00 | 0.00 | 82 | 1010.4 |
| 20260506104048 | 62 | 201 | 3.0 | 7.0 | 0.00 | 0.00 | 0.00 | 82 | 1010.3 |
| 20260506103548 | 62 | 212 | 3.0 | 8.0 | 0.00 | 0.00 | 0.00 | 82 | 1010.2 |
| 20260506103056 | 62 | 187 | 3.0 | 8.0 | 0.00 | 0.00 | 0.00 | 82 | 1010.1 |
| 20260506102548 | 62 | 188 | 3.0 | 8.0 | 0.00 | 0.00 | 0.00 | 82 | 1010.2 |
| 20260506102047 | 62 | 204 | 4.0 | 8.0 | 0.00 | 0.00 | 0.00 | 81 | 1010.1 |
| 20260506101557 | 62 | 182 | 3.0 | 8.0 | 0.00 | 0.00 | 0.00 | 81 | 1010.1 |
| 20260506101047 | 63 | 188 | 3.0 | 8.0 | 0.00 | 0.00 | 0.00 | 81 | 1010.1 |
| 20260506100547 | 63 | 202 | 4.0 | 8.0 | 0.00 | 0.00 | 0.00 | 81 | 1010.1 |
| 20260506100104 | 63 | 204 | 4.0 | 7.0 | 0.00 | 0.00 | 0.00 | 81 | 1010.0 |
| 20260506095547 | 63 | 205 | 4.0 | 8.0 | 0.00 | 0.00 | 0.00 | 80 | 1009.9 |
| 20260506095050 | 63 | 208 | 3.0 | 8.0 | 0.00 | 0.00 | 0.00 | 80 | 1010.1 |
| 20260506094550 | 63 | 199 | 3.0 | 8.0 | 0.00 | 0.00 | 0.00 | 80 | 1010.1 |
| 20260506094049 | 63 | 200 | 4.0 | 7.0 | 0.00 | 0.00 | 0.00 | 80 | 1010.1 |
| 20260506093551 | 63 | 167 | 3.0 | 8.0 | 0.00 | 0.00 | 0.00 | 80 | 1010.0 |
| 20260506093049 | 63 | 200 | 3.0 | 8.0 | 0.00 | 0.00 | 0.00 | 80 | 1010.1 |
| 20260506092548 | 63 | 200 | 3.0 | 8.0 | 0.00 | 0.00 | 0.00 | 79 | 1010.1 |
| 20260506092048 | 63 | 205 | 3.0 | 8.0 | 0.00 | 0.00 | 0.00 | 79 | 1010.0 |
| 20260506091553 | 64 | 198 | 4.0 | 7.0 | 0.00 | 0.00 | 0.00 | 79 | 1010.2 |
| 20260506091047 | 64 | 194 | 3.0 | 9.0 | 0.00 | 0.00 | 0.00 | 78 | 1010.0 |
| 20260506090652 | 64 | 196 | 3.0 | 9.0 | 0.00 | 0.00 | 0.00 | 78 | 1010.1 |
| 20260506090052 | 64 | 198 | 3.0 | 7.0 | 0.00 | 0.00 | 0.00 | 78 | 1010.2 |
| 20260506085547 | 64 | 200 | 3.0 | 7.0 | 0.00 | 0.00 | 0.00 | 78 | 1010.2 |
| 20260506085049 | 64 | 190 | 3.0 | 7.0 | 0.00 | 0.00 | 0.00 | 78 | 1010.3 |
| 20260506084617 | 64 | 195 | 3.0 | 7.0 | 0.00 | 0.00 | 0.00 | 77 | 1010.3 |
| 20260506084047 | 64 | 200 | 3.0 | 7.0 | 0.00 | 0.00 | 0.00 | 77 | 1010.3 |
| 20260506083547 | 64 | 202 | 3.0 | 6.0 | 0.00 | 0.00 | 0.00 | 76 | 1010.2 |
| 20260506083048 | 64 | 196 | 3.0 | 8.0 | 0.00 | 0.00 | 0.00 | 76 | 1010.3 |
| 20260506082546 | 64 | 196 | 3.0 | 8.0 | 0.00 | 0.00 | 0.00 | 76 | 1010.3 |
| 20260506082047 | 64 | 194 | 3.0 | 6.0 | 0.00 | 0.00 | 0.00 | 76 | 1010.3 |
| 20260506081554 | 65 | 194 | 2.0 | 6.0 | 0.00 | 0.00 | 0.00 | 75 | 1010.4 |
| 20260506081047 | 65 | 194 | 2.0 | 6.0 | 0.00 | 0.00 | 0.00 | 75 | 1010.4 |
| 20260506080548 | 65 | 192 | 3.0 | 5.0 | 0.00 | 0.00 | 0.00 | 75 | 1010.3 |
| 20260506073051 | 65 | 198 | 2.0 | 6.0 | 0.00 | 0.00 | 0.00 | 73 | 1010.5 |
| 20260506072547 | 65 | 206 | 2.0 | 7.0 | 0.00 | 0.00 | 0.00 | 73 | 1010.5 |
| 20260506072047 | 65 | 202 | 2.0 | 7.0 | 0.00 | 0.00 | 0.00 | 72 | 1010.6 |
| 20260506071550 | 65 | 198 | 3.0 | 6.0 | 0.00 | 0.00 | 0.00 | 72 | 1010.6 |
| 20260506071048 | 65 | 199 | 3.0 | 5.0 | 0.00 | 0.00 | 0.00 | 72 | 1010.8 |
| 20260506070548 | 65 | 199 | 2.0 | 5.0 | 0.00 | 0.00 | 0.00 | 71 | 1010.8 |
| 20260506062047 | 66 | 202 | 3.0 | 5.0 | 0.00 | 0.00 | 0.00 | 68 | 1011.4 |
| 20260506061551 | 66 | 192 | 2.0 | 5.0 | 0.00 | 0.00 | 0.00 | 68 | 1011.4 |
| 20260506061047 | 66 | 197 | 2.0 | 6.0 | 0.00 | 0.00 | 0.00 | 68 | 1011.6 |
| 20260506060547 | 66 | 197 | 2.0 | 6.0 | 0.00 | 0.00 | 0.00 | 68 | 1011.5 |
| 20260506051046 | 66 | 215 | 2.0 | 6.0 | 0.00 | 0.00 | 0.00 | 66 | 1011.6 |
| 20260506050547 | 66 | 209 | 2.0 | 6.0 | 0.00 | 0.00 | 0.00 | 66 | 1011.7 |
| 20260506045047 | 66 | 209 | 2.0 | 7.0 | 0.00 | 0.00 | 0.00 | 66 | 1011.8 |
| 20260506044653 | 66 | 214 | 2.0 | 7.0 | 0.00 | 0.00 | 0.00 | 65 | 1011.7 |
| 20260506044051 | 66 | 232 | 3.0 | 7.0 | 0.00 | 0.00 | 0.00 | 65 | 1011.8 |
| 20260506043548 | 66 | 222 | 2.0 | 7.0 | 0.00 | 0.00 | 0.00 | 65 | 1011.8 |
| 20260506043047 | 66 | 207 | 3.0 | 7.0 | 0.00 | 0.00 | 0.00 | 65 | 1011.9 |
| 20260506042548 | 66 | 208 | 2.0 | 5.0 | 0.00 | 0.00 | 0.00 | 65 | 1011.8 |
| 20260506042047 | 66 | 210 | 2.0 | 5.0 | 0.00 | 0.00 | 0.00 | 65 | 1011.9 |
| 20260506041559 | 66 | 212 | 2.0 | 5.0 | 0.00 | 0.00 | 0.00 | 65 | 1011.8 |
| 20260506041047 | 66 | 200 | 2.0 | 5.0 | 0.00 | 0.00 | 0.00 | 65 | 1011.9 |
| 20260506040550 | 66 | 213 | 2.0 | 7.0 | 0.00 | 0.00 | 0.00 | 65 | 1011.9 |
| 20260506040050 | 66 | 245 | 2.0 | 7.0 | 0.00 | 0.00 | 0.00 | 65 | 1011.9 |
| 20260506035547 | 66 | 221 | 3.0 | 6.0 | 0.00 | 0.00 | 0.00 | 65 | 1011.9 |
| 20260506035047 | 66 | 223 | 2.0 | 5.0 | 0.00 | 0.00 | 0.00 | 65 | 1011.9 |
| 20260506034625 | 66 | 240 | 2.0 | 7.0 | 0.00 | 0.00 | 0.00 | 65 | 1011.7 |
| 20260506034047 | 66 | 202 | 2.0 | 7.0 | 0.00 | 0.00 | 0.00 | 65 | 1011.8 |
| 20260506033548 | 66 | 203 | 2.0 | 5.0 | 0.00 | 0.00 | 0.00 | 64 | 1011.7 |
| 20260506033057 | 66 | 193 | 2.0 | 5.0 | 0.00 | 0.00 | 0.00 | 65 | 1011.8 |
| 20260506032548 | 66 | 211 | 2.0 | 5.0 | 0.00 | 0.00 | 0.00 | 65 | 1011.8 |
| 20260506032047 | 66 | 209 | 2.0 | 5.0 | 0.00 | 0.00 | 0.00 | 64 | 1011.7 |
| 20260506031552 | 67 | 200 | 2.0 | 4.0 | 0.00 | 0.00 | 0.00 | 64 | 1011.7 |
| 20260506031047 | 67 | 207 | 2.0 | 4.0 | 0.00 | 0.00 | 0.00 | 63 | 1011.7 |
| 20260506030547 | 67 | 219 | 1.0 | 4.0 | 0.00 | 0.00 | 0.00 | 63 | 1011.7 |
| 20260506030048 | 67 | 235 | 2.0 | 4.0 | 0.00 | 0.00 | 0.00 | 63 | 1011.7 |
| 20260506025547 | 67 | 242 | 2.0 | 4.0 | 0.00 | 0.00 | 0.00 | 63 | 1011.7 |
| 20260506025050 | 67 | 242 | 1.0 | 4.0 | 0.00 | 0.00 | 0.00 | 62 | 1011.7 |
| 20260506024548 | 67 | 244 | 1.0 | 4.0 | 0.00 | 0.00 | 0.00 | 62 | 1011.7 |
| 20260506024047 | 67 | 212 | 2.0 | 4.0 | 0.00 | 0.00 | 0.00 | 62 | 1011.8 |
| 20260506023547 | 67 | 212 | 2.0 | 4.0 | 0.00 | 0.00 | 0.00 | 62 | 1011.8 |
| 20260506023106 | 68 | 207 | 2.0 | 4.0 | 0.00 | 0.00 | 0.00 | 61 | 1011.8 |
| 20260506022547 | 68 | 207 | 2.0 | 5.0 | 0.00 | 0.00 | 0.00 | 62 | 1011.8 |
| 20260506022048 | 68 | 207 | 2.0 | 5.0 | 0.00 | 0.00 | 0.00 | 61 | 1011.7 |
| 20260506021549 | 68 | 207 | 2.0 | 5.0 | 0.00 | 0.00 | 0.00 | 61 | 1011.9 |
| 20260506021047 | 68 | 216 | 2.0 | 4.0 | 0.00 | 0.00 | 0.00 | 61 | 1012.0 |
| 20260506020547 | 68 | 216 | 2.0 | 4.0 | 0.00 | 0.00 | 0.00 | 60 | 1011.9 |
| 20260506020053 | 68 | 216 | 2.0 | 4.0 | 0.00 | 0.00 | 0.00 | 60 | 1011.8 |
| 20260506015547 | 68 | 216 | 2.0 | 4.0 | 0.00 | 0.00 | 0.00 | 60 | 1011.8 |
| 20260506015048 | 69 | 216 | 2.0 | 4.0 | 0.00 | 0.00 | 0.00 | 60 | 1011.8 |
| 20260506014553 | 69 | 216 | 2.0 | 4.0 | 0.00 | 0.00 | 0.00 | 59 | 1011.8 |
| 20260506014046 | 69 | 216 | 1.0 | 4.0 | 0.00 | 0.00 | 0.00 | 59 | 1011.6 |
| 20260506013547 | 69 | 216 | 1.0 | 4.0 | 0.00 | 0.00 | 0.00 | 58 | 1011.6 |
| 20260506013046 | 69 | 216 | 1.0 | 4.0 | 0.00 | 0.00 | 0.00 | 58 | 1011.6 |
| 20260506012547 | 69 | 216 | 1.0 | 4.0 | 0.00 | 0.00 | 0.00 | 58 | 1011.7 |
| 20260506012048 | 70 | 216 | 1.0 | 4.0 | 0.00 | 0.00 | 0.00 | 57 | 1011.7 |
| 20260506011603 | 70 | 219 | 2.0 | 4.0 | 0.00 | 0.00 | 0.00 | 57 | 1011.5 |
| 20260506011048 | 70 | 215 | 1.0 | 4.0 | 0.00 | 0.00 | 0.00 | 57 | 1011.4 |
| 20260506010548 | 70 | 216 | 2.0 | 4.0 | 0.00 | 0.00 | 0.00 | 56 | 1011.3 |
| 20260506010100 | 70 | 236 | 2.0 | 4.0 | 0.00 | 0.00 | 0.00 | 56 | 1011.2 |
| 20260506005547 | 70 | 247 | 1.0 | 4.0 | 0.00 | 0.00 | 0.00 | 56 | 1011.2 |
| 20260506005046 | 70 | 218 | 2.0 | 3.0 | 0.00 | 0.00 | 0.00 | 55 | 1011.1 |
| 20260506004611 | 70 | 218 | 1.0 | 3.0 | 0.00 | 0.00 | 0.00 | 55 | 1011.0 |
| 20260506004048 | 70 | 230 | 1.0 | 3.0 | 0.00 | 0.00 | 0.00 | 55 | 1011.0 |
| 20260506003548 | 71 | 230 | 0.0 | 2.0 | 0.00 | 0.00 | 0.00 | 54 | 1011.1 |
| 20260506003107 | 71 | 0 | 1.0 | 3.0 | 0.00 | 0.00 | 0.00 | 54 | 1011.0 |
| 20260506002547 | 71 | 230 | 1.0 | 3.0 | 0.00 | 0.00 | 0.00 | 53 | 1010.9 |
| 20260506002048 | 71 | 230 | 1.0 | 2.0 | 0.00 | 0.00 | 0.00 | 53 | 1011.0 |
| 20260506001555 | 72 | 230 | 1.0 | 3.0 | 0.00 | 0.00 | 0.00 | 52 | 1010.9 |
| 20260506001047 | 72 | 230 | 1.0 | 4.0 | 0.00 | 0.00 | 0.00 | 52 | 1010.8 |
| 20260506000548 | 72 | 230 | 1.0 | 4.0 | 0.00 | 0.00 | 0.00 | 51 | 1010.9 |
| 20260506000057 | 72 | 263 | 1.0 | 4.0 | 0.00 | 0.00 | 0.00 | 51 | 1010.7 |
| 20260505235546 | 72 | 264 | 1.0 | 3.0 | 0.00 | 0.00 | 0.00 | 51 | 1010.7 |
| 20260505235048 | 73 | 264 | 1.0 | 3.0 | 0.00 | 0.00 | 0.00 | 51 | 1010.8 |
| 20260505234625 | 73 | 264 | 1.0 | 7.0 | 0.00 | 0.00 | 0.00 | 51 | 1010.6 |
| 20260505234048 | 73 | 264 | 2.0 | 7.0 | 0.00 | 0.00 | 0.00 | 51 | 1010.7 |
| 20260505233546 | 73 | 246 | 2.0 | 6.0 | 0.00 | 0.00 | 0.00 | 51 | 1010.4 |
| 20260505233053 | 73 | 257 | 2.0 | 6.0 | 0.00 | 0.00 | 0.00 | 51 | 1010.4 |
| 20260505232547 | 74 | 269 | 1.0 | 6.0 | 0.00 | 0.00 | 0.00 | 51 | 1010.4 |
| 20260505232047 | 74 | 241 | 2.0 | 4.0 | 0.00 | 0.00 | 0.00 | 50 | 1010.4 |
| 20260505231551 | 74 | 215 | 1.0 | 3.0 | 0.00 | 0.00 | 0.00 | 50 | 1010.3 |